This demonstration page uses our WeatherBlox Daily Observations layout. Learn more.

Left ArrowRight Arrow

Hourly Observations for April 1, 2020

Temp ( °F °C ) Dew Point ( °F °C ) Humidity (%) Winds ( mph kmh ) Pressure ( in mb ) Visibility ( mi km ) Precip ( " mm )
12:15 am 00:15 Clear 54 12 41 5.2 63 63 SSW 12 19 29.83 1010 10 16.0934 0 0
12:35 am 00:35 Clear 52 11.3 41 5.2 66 66 SSW 9 15 29.83 1010 10 16.0934 0 0
12:55 am 00:55 Clear 51 10.5 41 5.1 69 69 SSW 9 15 29.83 1010 10 16.0934 0 0
1:15 am 01:15 Clear 50 10.1 41 5 71 71 SSW 9 15 29.83 1010 10 16.0934 0 0
1:35 am 01:35 Clear 50 10 41 5.1 72 72 SSW 9 15 29.83 1010 10 16.0934 0 0
1:55 am 01:55 Clear 50 10 41 5.1 72 72 SSW 9 15 29.84 1011 10 16.0934 0 0
2:15 am 02:15 Clear 50 10.1 41 5 71 71 SSW 7 11 29.84 1011 10 16.0934 0 0
2:35 am 02:35 Clear 49 9.5 41 4.9 73 73 SSW 7 11 29.84 1010 10 16.0934 0 0
2:55 am 02:55 Clear 49 9.2 40 4.6 73 73 SSW 6 9 29.84 1010 10 16.0934 0 0
3:15 am 03:15 Clear 48 9.1 41 4.8 75 75 SSW 6 9 29.84 1011 10 16.0934 0 0
3:35 am 03:35 Clear 48 8.7 40 4.7 76 76 SSW 6 9 29.84 1011 10 16.0934 0 0
3:55 am 03:55 Partly Cloudy 48 9 41 5 76 76 SSW 6 9 29.83 1010 10 16.0934 0 0
4:15 am 04:15 Partly Cloudy 47 8.6 41 5 78 78 SW 5 7 29.84 1010 10 16.0934 0 0
4:35 am 04:35 Partly Cloudy 47 8.3 41 5.1 80 80 SW 5 7 29.84 1010 10 16.0934 0 0
4:55 am 04:55 Partly Cloudy 48 8.8 41 5.1 78 78 SSW 6 9 29.82 1010 10 16.0934 0 0
5:15 am 05:15 Partly Cloudy 49 9.3 41 5.2 76 76 SSW 9 15 29.81 1009 10 16.0934 0 0
5:35 am 05:35 Clear 49 9.3 42 5.3 76 76 SSW 10 17 29.81 1009 10 16.0934 0 0
5:55 am 05:55 Clear 47 8.4 41 5 79 79 S 9 15 29.82 1010 10 16.0934 0 0
6:15 am 06:15 Clear 46 7.8 41 4.8 82 82 Calm 29.83 1010 10 16.0934 0 0
6:35 am 06:35 Clear 44 6.4 40 4.2 86 86 Calm 29.84 1011 10 16.0934 0 0
6:55 am 06:55 Clear 43 6.2 40 4.4 88 88 SSE 5 7 29.84 1010 10 16.0934 0 0
7:15 am 07:15 Clear 44 6.6 40 4.6 87 87 S 7 11 29.82 1010 10 16.0934 0 0
7:35 am 07:35 Sunny 42 5.6 39 4 90 90 Calm 29.83 1010 10 16.0934 0 0
7:55 am 07:55 Sunny 39 4 37 2.8 92 92 Calm 29.86 1011 10 16.0934 0 0
8:15 am 08:15 Sunny 42 5.4 40 4.4 93 93 Calm 29.85 1011 10 16.0934 0 0
8:35 am 08:35 Sunny 45 7.4 42 5.5 88 88 Calm 29.83 1010 10 16.0934 0 0
8:55 am 08:55 Sunny 48 8.8 44 6.4 85 85 S 5 7 29.81 1010 10 16.0934 0 0
9:15 am 09:15 Sunny 50 10.2 44 6.8 80 80 S 9 15 29.79 1009 10 16.0934 0 0
9:35 am 09:35 Sunny 53 11.7 44 6.7 72 72 S 13 20 29.78 1008 10 16.0934 0 0
9:55 am 09:55 Sunny 55 12.7 44 6.8 68 68 S 13 20 29.76 1008 10 16.0934 0 0
10:15 am 10:15 Sunny 56 13.4 44 6.8 65 65 S 14 22 29.75 1008 10 16.0934 0 0
10:35 am 10:35 Sunny 57 14 44 6.8 62 62 S 13 20 29.74 1007 10 16.0934 0 0
10:55 am 10:55 Sunny 58 14.5 45 7.1 61 61 S 14 22 29.72 1007 10 16.0934 0 0
11:15 am 11:15 Sunny 59 15 45 7.3 60 60 S 14 22 29.72 1006 10 16.0934 0 0
11:35 am 11:35 Sunny 59 15.1 46 7.6 61 61 S 15 24 29.72 1006 10 16.0934 0 0
11:55 am 11:55 Sunny 60 15.6 46 7.8 60 60 S 15 24 29.69 1006 10 16.0934 0 0
12:15 pm 12:15 Sunny 61 16.3 47 8.2 59 59 S 15 24 29.69 1005 10 16.0934 0 0
12:35 pm 12:35 Sunny 63 17.1 47 8.2 56 56 S 18 30 29.67 1005 10 16.0934 0 0
12:55 pm 12:55 Sunny 64 17.8 47 8.3 54 54 SSE 22 35 29.66 1004 10 16.0934 0 0
1:15 pm 13:15 Sunny 65 18.4 46 7.9 51 51 S 22 35 29.64 1004 10 16.0934 0 0
1:35 pm 13:35 Sunny 65 18.2 47 8.1 52 52 S 21 33 29.63 1003 10 16.0934 0 0
1:55 pm 13:55 Sunny 68 19.8 47 8.3 48 48 S 20 31 29.61 1003 10 16.0934 0 0
2:15 pm 14:15 Partly Cloudy 69 20.5 46 7.6 43 43 S 18 30 29.59 1002 10 16.0934 0 0
2:35 pm 14:35 Partly Cloudy 69 20.4 46 7.8 44 44 S 23 37 29.58 1002 10 16.0934 0 0
2:55 pm 14:55 Partly Cloudy 69 20.7 46 7.6 43 43 S 20 31 29.58 1002 10 16.0934 0 0
3:15 pm 15:15 Sunny 69 20.6 46 7.7 44 44 SSE 20 31 29.56 1001 10 16.0934 0 0
3:35 pm 15:35 Partly Cloudy 70 20.9 45 7.3 42 42 S 23 37 29.55 1001 10 16.0934 0 0
3:55 pm 15:55 Sunny 69 20.8 45 7.4 42 42 S 21 33 29.55 1001 10 16.0934 0 0
4:15 pm 16:15 Partly Cloudy 69 20.6 45 7.2 42 42 S 17 28 29.55 1001 10 16.0934 0 0
4:35 pm 16:35 Partly Cloudy 69 20.3 46 7.7 44 44 S 21 33 29.56 1001 10 16.0934 0 0
4:55 pm 16:55 Mostly Cloudy 69 20.6 46 7.9 44 44 SSE 22 35 29.55 1001 10 16.0934 0 0
5:15 pm 17:15 Mostly Cloudy 69 20.8 46 7.5 42 42 S 17 28 29.55 1001 10 16.0934 0 0
5:35 pm 17:35 Mostly Cloudy 69 20.4 45 7.1 42 42 S 16 26 29.55 1001 10 16.0934 0 0
5:55 pm 17:55 Mostly Cloudy 69 20.5 45 7.2 42 42 S 18 30 29.55 1001 10 16.0934 0 0
6:15 pm 18:15 Partly Cloudy 69 20.5 46 7.5 43 43 S 16 26 29.55 1001 10 16.0934 0 0
6:35 pm 18:35 Sunny 68 20.2 46 7.8 45 45 S 14 22 29.56 1001 10 16.0934 0 0
6:55 pm 18:55 Sunny 68 19.9 46 8 46 46 SSE 13 20 29.56 1001 10 16.0934 0 0
7:15 pm 19:15 Sunny 66 19.1 47 8.2 49 49 SSE 8 13 29.58 1002 10 16.0934 0 0
7:35 pm 19:35 Sunny 65 18.2 47 8.6 54 54 SE 6 9 29.58 1002 10 16.0934 0 0
7:55 pm 19:55 Sunny 63 17.1 47 8.6 58 58 SE 7 11 29.59 1002 10 16.0934 0 0
8:15 pm 20:15 Clear 63 17 48 8.8 59 59 SSE 10 17 29.6 1002 10 16.0934 0 0
8:35 pm 20:35 Clear 61 16.2 48 9 63 63 SE 9 15 29.62 1003 10 16.0934 0 0
8:55 pm 20:55 Clear 59 14.8 48 9 68 68 ESE 8 13 29.63 1003 10 16.0934 0 0
9:15 pm 21:15 Clear 59 15 48 9 68 68 SSE 13 20 29.64 1004 10 16.0934 0 0
9:35 pm 21:35 Clear 59 15 48 8.8 67 67 SSE 10 17 29.64 1004 10 16.0934 0 0
9:55 pm 21:55 Clear 59 15 48 8.9 67 67 SSE 13 20 29.64 1004 10 16.0934 0 0
10:15 pm 22:15 Clear 59 15.2 47 8.6 65 65 SSE 13 20 29.64 1004 10 16.0934 0 0
10:35 pm 22:35 Clear 58 14.4 47 8.5 68 68 SSE 10 17 29.63 1004 10 16.0934 0 0
10:55 pm 22:55 Clear 57 13.8 47 8.4 70 70 SSE 9 15 29.65 1004 10 16.0934 0 0
11:15 pm 23:15 Clear 56 13.5 47 8.3 71 71 SSE 9 15 29.65 1004 10 16.0934 0 0
11:35 pm 23:35 Clear 56 13.3 47 8.5 73 73 SSE 12 19 29.64 1004 10 16.0934 0 0
11:55 pm 23:55 Clear 56 13.4 47 8.4 72 72 SSE 13 20 29.64 1004 10 16.0934 0 0

Powered by AerisWeather